Alice Springs, Australia

2:01 AM ACST on December 07, 2019 (GMT +0930)
Alice Springs

Weather History for YBAS - August, 2019

Change the Weather History Date:

Wednesday, August 14, 2019

  Actual Average Record
Temperature  
Mean Temperature 52 °F -  
Max Temperature 70 °F 76 °F 87 °F (1996)
Min Temperature 33 °F 46 °F 28 °F (2014)
Degree Days  
Heating Degree Days 14    
Growing Degree Days 2 (Base 50)    
Moisture  
Dew Point 20 °F    
Average Humidity 31    
Maximum Humidity 65    
Minimum Humidity 4    
Precipitation  
Precipitation 0.00 in 0.01 in - ()
Sea Level Pressure  
Sea Level Pressure 30.22 in    
Wind  
Wind Speed 4 mph ()    
Max Wind Speed 8 mph    
Max Gust Speed -    
Visibility 6.2 miles    
Events      
Averages and records for this station are not official NWS values.
T = Trace of Precipitation, MM = Missing Value Source: Averaged Metar Reports

Daily Weather History Graph

Daily Weather History Graph

Search for Another Location

Airport or City:

Astronomy

Aug. 14, 2019 Rise Set
Actual Time 7:01 AM ACST 6:16 PM ACST
Civil Twilight 6:38 AM ACST 6:40 PM ACST
Nautical Twilight 6:11 AM ACST 7:07 PM ACST
Astronomical Twilight 5:45 AM ACST 7:33 PM ACST
Moon 5:12 PM ACST (8/14) 6:05 AM ACST (8/14)
Length of Visible Light 12h 01m
Length of Day
11h 15m
Waxing Gibbous, 98% of the Moon is Illuminated
Aug 14
Waxing Gibbous
Aug 15
Full
Aug 24
Last Quarter
Aug 30
New
Sep 6
First Quarter

Hourly Weather History & Observations

Time (ACST) Temp. Windchill Dew Point Humidity Pressure Visibility Wind Dir Wind Speed Gust Speed Precip Events Conditions
12:00 AM 45 °F - 27 °F 37% 30.26 in - SSE 4.6 mph - -   Clear
12:00 AM 44.6 °F 42.2 °F 26.6 °F 49% 30.27 in 6.2 mi SSE 4.6 mph - N/A   Unknown
12:30 AM 42 °F - 26 °F 40% 30.26 in - Calm Calm - -  
12:30 AM 42.8 °F - 26.6 °F 53% 30.27 in 6.2 mi Calm Calm - N/A   Unknown
1:00 AM 41.0 °F - 26.6 °F 57% 30.27 in 6.2 mi South 1.2 mph - N/A   Unknown
1:30 AM 41.0 °F - 28.4 °F 61% 30.27 in 6.2 mi Calm Calm - N/A   Unknown
2:00 AM 39.2 °F - 26.6 °F 61% 30.27 in 6.2 mi Calm Calm - N/A   Unknown
3:00 AM 38 °F - 26 °F 50% 30.25 in - WNW 5.8 mph - -   Clear
3:00 AM 37.4 °F 32.8 °F 26.6 °F 65% 30.24 in 6.2 mi WNW 5.8 mph - N/A   Unknown
3:30 AM 39 °F - 27 °F 51% 30.24 in - WNW 4.6 mph - -  
3:30 AM 39.2 °F 35.9 °F 26.6 °F 61% 30.24 in 6.2 mi WNW 4.6 mph - N/A   Unknown
4:30 AM 37.4 °F 33.8 °F 24.8 °F 60% 30.24 in 6.2 mi WNW 4.6 mph - N/A   Unknown
5:00 AM 35.6 °F 32.8 °F 24.8 °F 65% 30.24 in 6.2 mi NW 3.5 mph - N/A   Unknown
5:30 AM 34 °F - 24 °F 55% 30.25 in - NNW 3.5 mph - -  
5:30 AM 33.8 °F 30.8 °F 23.0 °F 65% 30.27 in 6.2 mi NNW 3.5 mph - N/A   Unknown
6:00 AM 35 °F - 25 °F 55% 30.26 in - West 4.6 mph - -   Clear
6:00 AM 35.6 °F 31.7 °F 24.8 °F 65% 30.27 in 6.2 mi West 4.6 mph - N/A   Unknown
6:30 AM 35 °F - 25 °F 56% 30.27 in - West 4.6 mph - -  
6:30 AM 35.6 °F 31.7 °F 24.8 °F 65% 30.27 in 6.2 mi West 4.6 mph - N/A   Unknown
7:00 AM 35.6 °F 31.7 °F 24.8 °F 65% 30.27 in 6.2 mi WNW 4.6 mph - N/A   Unknown
7:30 AM 37.4 °F 33.8 °F 26.6 °F 65% 30.30 in 6.2 mi WNW 4.6 mph - N/A   Unknown
8:00 AM 41.0 °F 38.0 °F 28.4 °F 61% 30.30 in 6.2 mi West 4.6 mph - N/A   Unknown
8:30 AM 46 °F - 29 °F 39% 30.30 in - Calm Calm - -  
8:30 AM 46.4 °F - 28.4 °F 50% 30.30 in 6.2 mi Calm Calm - N/A   Unknown
9:00 AM 51 °F - 29 °F 31% 30.30 in - SE 1.2 mph - -   Clear
9:00 AM 51.8 °F - 30.2 °F 44% 30.30 in - SE 1.2 mph - N/A   Clear
9:30 AM 57 °F - 27 °F 20% 30.30 in - NE 8.1 mph - -  
9:30 AM 57.2 °F - 26.6 °F 31% 30.30 in - NE 8.1 mph - N/A   Clear
10:00 AM 59.0 °F - 28.4 °F 31% 30.30 in - NE 8.1 mph - N/A   Clear
10:30 AM 60.8 °F - 28.4 °F 29% 30.30 in 6.2 mi NE 8.1 mph - N/A   Unknown
11:00 AM 62.6 °F - 26.6 °F 26% 30.30 in - NE 6.9 mph - N/A   Clear
11:30 AM 64 °F - 25 °F 12% 30.26 in - NNE 5.8 mph - -  
11:30 AM 64.4 °F - 24.8 °F 22% 30.27 in - NNE 5.8 mph - N/A   Clear
12:00 PM 65 °F - 22 °F 10% 30.24 in - East 5.8 mph - -   Clear
12:00 PM 64.4 °F - 21.2 °F 19% 30.24 in - ENE 5.8 mph - N/A   Clear
12:30 PM 66.2 °F - 21.2 °F 18% 30.24 in 6.2 mi ESE 5.8 mph - N/A   Unknown
1:30 PM 68.0 °F - 17.6 °F 15% 30.18 in 6.2 mi SE 8.1 mph - N/A   Unknown
2:00 PM 68.0 °F - 17.6 °F 15% 30.18 in 6.2 mi East 5.8 mph - N/A   Unknown
2:30 PM 70 °F - 17 °F 6% 30.15 in - ENE 5.8 mph - -  
2:30 PM 69.8 °F - 17.6 °F 14% 30.15 in 6.2 mi ENE 5.8 mph - N/A   Unknown
3:00 PM 70 °F - 15 °F 5% 30.14 in - SE 6.9 mph - -   Clear
3:00 PM 69.8 °F - 15.8 °F 13% 30.15 in 6.2 mi SE 6.9 mph - N/A   Unknown
3:30 PM 70 °F - 15 °F 5% 30.14 in - NE 6.9 mph - -  
3:30 PM 69.8 °F - 15.8 °F 13% 30.15 in 6.2 mi NE 6.9 mph - N/A   Unknown
4:00 PM 69.8 °F - 12.2 °F 11% 30.15 in 6.2 mi SE 6.9 mph - N/A   Unknown
4:30 PM 69.8 °F - 14.0 °F 12% 30.15 in 6.2 mi East 6.9 mph - N/A   Unknown
5:00 PM 69.8 °F - 12.2 °F 11% 30.15 in 6.2 mi ESE 6.9 mph - N/A   Unknown
5:30 PM 69 °F - 13 °F 5% 30.14 in - ESE 6.9 mph - -  
5:30 PM 69.8 °F - 12.2 °F 11% 30.15 in 6.2 mi ESE 6.9 mph - N/A   Unknown
6:00 PM 68 °F - 11 °F 4% 30.14 in - ESE 8.1 mph - -   Clear
6:30 PM 64 °F - 10 °F 5% 30.15 in - ESE 8.1 mph - -  
6:30 PM 64.4 °F - 10.4 °F 12% 30.15 in 6.2 mi ESE 8.1 mph - N/A   Unknown
7:30 PM 60.8 °F - 10.4 °F 14% 30.18 in 6.2 mi East 6.9 mph - N/A   Unknown
8:00 PM 59.0 °F - 8.6 °F 14% 30.18 in 6.2 mi East 5.8 mph - N/A   Unknown
8:30 PM 55.4 °F - 10.4 °F 17% 30.18 in 6.2 mi East 6.9 mph - N/A   Unknown
9:00 PM 56 °F - 10 °F 7% 30.19 in - East 5.8 mph - -   Clear
9:00 PM 55.4 °F - 10.4 °F 17% 30.18 in 6.2 mi East 5.8 mph - N/A   Unknown
9:30 PM 54 °F - 11 °F 8% 30.19 in - East 5.8 mph - -  
9:30 PM 53.6 °F - 10.4 °F 18% 30.18 in 6.2 mi East 5.8 mph - N/A   Unknown
10:00 PM 51.8 °F - 10.4 °F 19% 30.18 in 6.2 mi ENE 4.6 mph - N/A   Unknown
10:30 PM 48.2 °F - 8.6 °F 20% 30.18 in 6.2 mi Calm Calm - N/A   Unknown
11:00 PM 46.4 °F - 8.6 °F 22% 30.18 in 6.2 mi East 2.3 mph - N/A   Unknown
11:30 PM 44 °F - 8 °F 11% 30.19 in - Calm Calm - -  
11:30 PM 44.6 °F - 6.8 °F 21% 30.21 in 6.2 mi Calm Calm - N/A   Unknown